STARLINK-35271 (65812 NORAD) Tracking and Keplerian Element Data

This shows tracking and keplerian element data for the satellite.

Feedback or suggestion? Click here.




ElementValue
Catalog65812
NameSTARLINK-35271
Epoch Orbit1300
Epoch Day354.1384277
Epoch Year2025
RAAN214.6058
Inclination97.6037
Eccentricity0.0002405
Argument of Perigee86.0351
Mean Anonmoly274.115
Mean Motion15.05651183
Decay Rate2.154E-05
L11 65812U 25218X 25354.13842770 .00002154 00000+0 15341-3 0 9999
L22 65812 97.6037 214.6058 0002405 86.0351 274.1150 15.05651183 13005



Live tracking and technical data element details for STARLINK-35271 (NORAD 65812). STARLINK-35271 can be tracked NOW for your location showing map with azimuth and elevation plus other details from your city location.







IsCatalogInMostPopularTable: catalog: 65812, numindb: 4
Update: records affected: 1



GetName: 65812 STARLINK-35271

Hit Count: updated at: Sun, 08 Feb 2026 17:13:55 GMT